MET7781 - Keflavik to Boston

Airbus A321-232
665MT - Sharklet Equipped
5 hrs 00 mins
2094 nm
Ferry - M

Departure

Departing from
Keflavik (KEF)
Departure gate
Ramp
Scheduled Departure
GMT 1100
Local 1100
METAR BIKF 280200Z 04009KT 9999 FEW026 SCT110 BKN210 02/M01 Q1024
TAF TAF BIKF 272218Z 2800/2824 04012KT 9999 FEW025 TX06/2816Z TN01/2802Z TEMPO 2804/2819 BKN015 BECMG 2819/2821 12015KT SHRA SCT012 BKN020
  • No charts available

Arrival

Arriving at
Boston (BOS)
Arrival gate
Scheduled Arrival
GMT 1600
Local 1200

Route Map

Planning Resources

EMBLA 60/40 59/50 PRAWN TDP YQB PLB LAMED J6 SAX J77 PENSY CSN.OTT6
EMBL1B EMBLA 6331N 6237N 6141N 6044N 5947N 5850N 5752N 5654N 5556N VALIE TAFFY PQI J55 ENE Q480 BAF J77 PTW PPM HURTZ
VESTUR1A VANDA STEAM N149B TOPPS J581 ENE J55 PVD J225 JFK J79 VILLS PPM
KEF4F NN FOXXE N27OB YBC N272C YSC J563 ALB J6 BWZ J77 SHILO
KEF4F DCT YDP J583 YWK J561 YBC J563 ALB J6 PWT
Route:
OFP Layout:
Units:
Detailed Navlog:
ETOPS Planning:
Plan Stepclimbs:
Runway Analysis:
Include NOTAMS:
FIR NOTAMS:
Flight Maps:

Return Flights

MET41
Boeing 757-200W
0300 GMT

Popularity

Hub Current Bids PiReps this month Total PiReps
KMCI 0 0 1
KLAX 0 0 0
KBOS 0 0 0